Change the Weather History Date:

Monday, October 7, 2013

  Actual Average Record
Temperature  
Mean Temperature 70 °F 62 °F  
Max Temperature 81 °F 74 °F 95 °F (1941)
Min Temperature 59 °F 51 °F 33 °F (1935)
Degree Days  
Heating Degree Days 0 4  
Month to date heating degree days 0 25  
Since 1 July heating degree days 13 54  
Cooling Degree Days 5 2  
Month to date cooling degree days 63 16  
Year to date cooling degree days 1662 1520  
Growing Degree Days 22 (Base 50)    
Moisture  
Dew Point 67 °F    
Average Humidity 80    
Maximum Humidity 90    
Minimum Humidity 69    
Precipitation  
Precipitation 0.90 in 0.10 in 1.86 in (1951)
Month to date precipitation 0.90 0.69  
Year to date precipitation 41.16 34.81  
Snow  
Snow 0.00 in 0.00 in 0.00 in (2002)
Month to date snowfall 0.0 0.0  
Since 1 July snowfall 0.0 0.0  
Snow Depth 0.00 in    
Sea Level Pressure  
Sea Level Pressure 29.91 in    
Wind  
Wind Speed 10 mph (South)    
Max Wind Speed 26 mph    
Max Gust Speed 37 mph    
Visibility 8 miles    
Events Fog , Rain    
T = Trace of Precipitation, MM = Missing Value Source: NWS Daily Summary

Daily Weather History Graph

Daily Weather History Graph

Search for Another Location

Airport or City:

Trip Planner

Search our weather history database for the weather conditions in past years. The results will help you decide how hot, cold, wet, or windy it might be!

Date:

Astronomy

Oct. 07, 2013 Rise Set
Actual Time 7:10 AM EDT 6:43 PM EDT
Civil Twilight 6:44 AM EDT 7:09 PM EDT
Nautical Twilight 6:13 AM EDT 7:39 PM EDT
Astronomical Twilight 5:43 AM EDT 8:09 PM EDT
Moon 9:54 AM EDT (10/7) 8:30 PM EDT (10/7)
Length of Visible Light 12h 25m
Length of Day
11h 32m
Waxing Crescent, 8% of the Moon is Illuminated
Oct 7
Waxing Crescent
Oct 11
First Quarter
Oct 18
Full
Oct 26
Last Quarter
Nov 3
New

Hourly Weather History & Observations

Time (EDT) Temp. Heat Index Dew Point Humidity Pressure Visibility Wind Dir Wind Speed Gust Speed Precip Events Conditions
12:54 AM 75.0 °F - 66.9 °F 76% 29.96 in 10.0 mi South 9.2 mph - N/A   Overcast
1:45 AM 73.4 °F - 66.2 °F 78% 29.94 in 10.0 mi South 9.2 mph - N/A   Overcast
1:54 AM 73.9 °F - 66.9 °F 79% 29.95 in 10.0 mi SSE 6.9 mph - N/A   Overcast
2:54 AM 73.9 °F - 66.9 °F 79% 29.93 in 10.0 mi SSE 9.2 mph - N/A   Overcast
3:39 AM 73.4 °F - 66.2 °F 78% 29.91 in 10.0 mi SSE 6.9 mph - N/A   Overcast
3:54 AM 73.0 °F - 66.9 °F 81% 29.91 in 10.0 mi SSE 8.1 mph - N/A   Overcast
4:54 AM 73.0 °F - 68.0 °F 84% 29.90 in 10.0 mi SSE 5.8 mph - N/A   Overcast
5:54 AM 73.0 °F - 69.1 °F 87% 29.89 in 10.0 mi SSE 5.8 mph - 0.00 in   Overcast
6:54 AM 73.9 °F - 69.1 °F 85% 29.88 in 10.0 mi South 10.4 mph - N/A   Overcast
7:10 AM 73.4 °F - 69.8 °F 88% 29.87 in 10.0 mi South 8.1 mph - N/A   Overcast
7:54 AM 73.9 °F - 70.0 °F 87% 29.87 in 6.0 mi SSE 10.4 mph 21.9 mph N/A   Overcast
8:54 AM 75.9 °F - 70.0 °F 82% 29.88 in 10.0 mi South 15.0 mph - N/A   Overcast
9:28 AM 77.0 °F - 69.8 °F 78% 29.87 in 10.0 mi South 15.0 mph 21.9 mph N/A   Overcast
9:54 AM 80.1 °F 82.9 °F 69.1 °F 69% 29.87 in 10.0 mi South 19.6 mph 26.5 mph N/A   Mostly Cloudy
10:54 AM 80.1 °F 82.9 °F 69.1 °F 69% 29.86 in 10.0 mi South 19.6 mph 25.3 mph N/A   Overcast
11:54 AM 80.1 °F 82.7 °F 68.0 °F 67% 29.87 in 10.0 mi SSW 17.3 mph 32.2 mph 0.00 in Rain Light Rain
12:39 PM 78.8 °F - 69.8 °F 74% 29.86 in 8.0 mi SSW 11.5 mph - 0.00 in Rain Light Rain
12:54 PM 77.0 °F - 70.0 °F 79% 29.88 in 2.0 mi SSW 15.0 mph - 0.04 in Rain Rain
1:04 PM 71.6 °F - 66.2 °F 83% 29.89 in 1.2 mi WSW 24.2 mph 36.8 mph 0.07 in Rain Heavy Rain
1:10 PM 69.8 °F - 66.2 °F 88% 29.89 in 0.8 mi SW 24.2 mph 31.1 mph 0.18 in Rain Heavy Rain
1:17 PM 69.8 °F - 66.2 °F 88% 29.89 in 1.0 mi SSW 20.7 mph 29.9 mph 0.25 in Rain Heavy Rain
1:38 PM 69.8 °F - 66.2 °F 88% 29.87 in 0.5 mi SSW 17.3 mph 26.5 mph 0.62 in Fog , Rain Heavy Rain
1:46 PM 69.8 °F - 66.2 °F 88% 29.87 in 1.5 mi South 13.8 mph - 0.71 in Rain Rain
1:54 PM 69.1 °F - 66.0 °F 90% 29.88 in 2.0 mi South 10.4 mph - 0.73 in Rain Rain
2:25 PM 69.8 °F - 66.2 °F 88% 29.86 in 10.0 mi South 8.1 mph - 0.04 in Rain Light Rain
2:54 PM 70.0 °F - 66.0 °F 87% 29.90 in 5.0 mi SW 8.1 mph - 0.07 in Rain Light Rain
3:54 PM 70.0 °F - 66.9 °F 90% 29.89 in 10.0 mi South 5.8 mph - 0.05 in   Overcast
4:54 PM 71.1 °F - 66.9 °F 87% 29.89 in 10.0 mi SW 5.8 mph - 0.01 in   Mostly Cloudy
5:36 PM 71.6 °F - 66.2 °F 83% 29.89 in 10.0 mi SW 5.8 mph - N/A   Mostly Cloudy
5:54 PM 71.1 °F - 66.9 °F 87% 29.91 in 10.0 mi WSW 5.8 mph - N/A   Mostly Cloudy
6:54 PM 70.0 °F - 66.9 °F 90% 29.93 in 10.0 mi West 3.5 mph - N/A   Mostly Cloudy
7:54 PM 70.0 °F - 66.9 °F 90% 29.95 in 10.0 mi North 5.8 mph - N/A   Mostly Cloudy
8:54 PM 69.1 °F - 66.0 °F 90% 29.98 in 10.0 mi North 9.2 mph - N/A   Overcast
9:54 PM 64.0 °F - 57.9 °F 80% 30.02 in 10.0 mi NNE 10.4 mph - N/A   Mostly Cloudy
10:54 PM 62.1 °F - 53.1 °F 72% 30.04 in 10.0 mi NNE 10.4 mph - N/A   Scattered Clouds
11:54 PM 60.1 °F - 52.0 °F 75% 30.06 in 10.0 mi North 6.9 mph - N/A   Scattered Clouds